STARLINK-1559, 46077

Orbit data source: Space-Track

STARLINK-1559, 46077 is a payload satellite owned by SpaceX/Seattle (US) in LEO that was launched on Fri, 07 Aug 2020 UTC via an FALCON 9 launch vehicle from the Air Force Eastern Test Range (AFETR). Payload-class satellites include a variety of spacecraft equipped with specific instruments for various scientific and technological missions. These include communications satellites like Starlink; space stations such as the ISS; scientific satellites like the Hubble; Earth observation satellites from companies like Planet Labs, Umbra, and HawkEye 360; GPS; miniature CubeSats for education and research; and military/defense satellites.

Loading next visibility...
Identifier
46077, 2020-055BC
Orbit
LEO
Country
Flag of USUS
Related business
Manufacturer
SpaceX/Seattle
Mission
Partially operational Commercial Communications
Bus & Motor
STARLINK, Unknown motor
Mass
260 kg wet, ~248 kg dry
Launch date (UTC)
2020-08-07 (6 years ago)
Launch vehicle
FALCON 9
Launch site
Air Force Eastern Test Range (AFETR)
Object type
Payload
Rocket body
Debris
Shape & HBR
Box + 1 Pan, 10.1 m
Radar Cross Section
13.562 m², Large (>1 m²)

Expand to show TLE details & history
Last TLE update: 1 day ago

TLE from 1 day ago
0 STARLINK-1559
1 46077U 20055BC  26067.31874488  .00067845  00000-0  23396-2 0  9995
2 46077  53.0250  80.3236 0004209  31.2070 328.9178 15.29381871309376
Epoch: 2026-03-08T07:38Z
TLE epoch observation values (Epoch: 2026-03-08T07:38:59.557Z)
Latitude
-0.00002°
Longitude
159.54768°
Altitude
476.073 km
Speed
7.63 km/s
True Right ascension
05h 21m 17s
True Declination
0° 00' 00"
Sunlit
Object was in daylight at epoch
Visualization orbit readout
Latitude
Unknown
Longitude
Unknown
Altitude
Unknown
Speed
Unknown
Apparent Right ascension
Unknown
Apparent Declination
Unknown
Sunlit
N/A
Visualization observer readout
Local Sidereal Time
15:35:34
Azimuth
Unknown
Elevation
Unknown
Doppler factor
Unknown
Orbital elements
Apogee altitude
480.823 km
Perigee altitude
475.051 km
Semi-major axis
6,856.074 km
Eccentricity
0.00042
Inclination
53.025°
RAAN
80.3236°
Arg. of periapsis
31.207°
True anomaly
328.89289°
Mean anomaly
328.9178°
Eccentric anomaly
328.90535°
Mean motion
3.82323 °/min
Orbital period
94.16 mins
BSTAR
0.0023396
Loading maneuver chart data...
Computing Atmospheric mass density...
Loading historical data...
Loading historical data...
Loading historical data...
Loading historical data...
Loading historical data...
Loading historical data...
Loading historical data...

Documentation

Showing up to 5 results
|